This is the latest recevied weather packets stored in our database for station/object N5LSN. If no packets are shown the sender has not sent any weather packets the latest 10 day(s).
| Time | Temp. | Humidity | Pressure | Rain* | Wind** | Luminosity | Snow |
|---|---|---|---|---|---|---|---|
| 1777767227 | 21.11° C | 40% | 1018.2 hPa | 0 mm | - | 33 W/m² | - |
| 1777766925 | 21.67° C | 41% | 1018.2 hPa | 0 mm | - | 39 W/m² | - |
| 1777766622 | 22.22° C | 41% | 1018.2 hPa | 0 mm | - | 50 W/m² | - |
| 1777766319 | 22.22° C | 40% | 1018.2 hPa | 0 mm | - | 60 W/m² | - |
| 1777766016 | 21.67° C | 39% | 1018.2 hPa | 0 mm | - | 70 W/m² | - |
| 1777765713 | 21.67° C | 39% | 1018.2 hPa | 0 mm | - | 71 W/m² | - |
| 1777765410 | 22.22° C | 38% | 1018 hPa | 0 mm | - | 89 W/m² | - |
| 1777765107 | 21.67° C | 39% | 1018.1 hPa | 0 mm | - | 53 W/m² | - |
| 1777764803 | 21.67° C | 38% | 1018 hPa | 0 mm | - | 88 W/m² | - |
| 1777764500 | 21.67° C | 40% | 1017.9 hPa | 0 mm | - | 49 W/m² | - |
| 1777764196 | 21.67° C | 40% | 1017.9 hPa | 0 mm | - | 53 W/m² | - |
| 1777763893 | 21.67° C | 37% | 1017.8 hPa | 0 mm | - | 73 W/m² | - |
| 1777763591 | 21.67° C | 38% | 1018.1 hPa | 0 mm | - | 101 W/m² | - |
| 1777763289 | 22.22° C | 40% | 1018.1 hPa | 0 mm | - | 66 W/m² | - |
| 1777762986 | 22.22° C | 40% | 1017.9 hPa | 0 mm | - | 82 W/m² | - |
| 1777762683 | 21.67° C | 39% | 1017.9 hPa | 0 mm | - | 91 W/m² | - |
| 1777762380 | 21.67° C | 37% | 1017.9 hPa | 0 mm | - | 74 W/m² | - |
| 1777762076 | 22.22° C | 39% | 1017.9 hPa | 0 mm | - | 165 W/m² | - |
| 1777761773 | 22.22° C | 39% | 1018.2 hPa | 0 mm | - | 155 W/m² | - |
| 1777761470 | 21.67° C | 41% | 1018.2 hPa | 0 mm | - | 268 W/m² | - |
| 1777761169 | 20.56° C | 45% | 1018 hPa | 0 mm | - | 309 W/m² | - |
| 1777760866 | 20.56° C | 44% | 1018 hPa | 0 mm | - | 75 W/m² | - |
| 1777760562 | 21.11° C | 45% | 1017.9 hPa | 0 mm | - | 97 W/m² | - |
| 1777760258 | 20.56° C | 41% | 1018.2 hPa | 0 mm | - | 117 W/m² | - |
| 1777759954 | 21.11° C | 42% | 1018.1 hPa | 0 mm | - | 79 W/m² | - |
* Rain latest hour (hover to see other rain measurements)
** Current wind speed in m/s (hover to see current wind gust speed)